Weather History for EGUN - October, 2012

Change the Weather History Date:

Tuesday, October 2, 2012

  Actual Average Record
Temperature  
Mean Temperature 57 °F -  
Max Temperature 64 °F - - ()
Min Temperature 50 °F - - ()
Degree Days  
Heating Degree Days 8    
Growing Degree Days 7 (Base 50)    
Moisture  
Dew Point 52 °F    
Average Humidity 82    
Maximum Humidity 96    
Minimum Humidity 64    
Precipitation  
Precipitation 0.01 in - - ()
Sea Level Pressure  
Sea Level Pressure 29.74 in    
Wind  
Wind Speed 13 mph ()    
Max Wind Speed 21 mph    
Max Gust Speed 31 mph    
Visibility 6.1 miles    
Events Rain    
T = Trace of Precipitation, MM = Missing Value Source: Averaged Metar Reports

Daily Weather History Graph

Daily Weather History Graph

Search for Another Location

Airport or City:

Trip Planner

Search our weather history database for the weather conditions in past years. The results will help you decide how hot, cold, wet, or windy it might be!

Date:

Astronomy

Oct. 02, 2012 Rise Set
Actual Time 7:01 AM BST 6:32 PM BST
Civil Twilight 6:27 AM BST 7:06 PM BST
Nautical Twilight 5:47 AM BST 7:45 PM BST
Astronomical Twilight 5:07 AM BST 8:25 PM BST
Moon 7:09 PM BST (10/2) 9:38 AM BST (10/2)
Length of Visible Light 12h 38m
Length of Day
11h 30m
Waning Gibbous, 95% of the Moon is Illuminated
Oct 2
Waning Gibbous
Oct 8
Last Quarter
Oct 15
New
Oct 22
First Quarter
Oct 29
Full

Hourly Weather History & Observations

Time (BST) Temp. Dew Point Humidity Pressure Visibility Wind Dir Wind Speed Gust Speed Precip Events Conditions
12:58 AM 52.2 °F 50.4 °F 94% 29.85 in 6.2 mi SW 10.4 mph - N/A   Clear
1:58 AM 51.8 °F 49.5 °F 92% 29.85 in 6.2 mi SW 11.5 mph - N/A   Clear
2:58 AM 50.9 °F 49.1 °F 94% 29.85 in 6.2 mi SW 9.2 mph - N/A   Scattered Clouds
3:58 AM 50.7 °F 49.6 °F 96% 29.84 in 6.2 mi SW 10.4 mph - N/A   Mostly Cloudy
4:58 AM 51.1 °F 49.8 °F 95% 29.84 in 6.2 mi SW 10.4 mph - N/A   Mostly Cloudy
5:58 AM 51.1 °F 49.5 °F 94% 29.84 in 6.2 mi SSW 10.4 mph - N/A   Mostly Cloudy
6:58 AM 51.6 °F 49.6 °F 93% 29.83 in 6.2 mi SSW 9.2 mph - N/A   Overcast
7:58 AM 51.8 °F 49.6 °F 92% 29.83 in 6.2 mi SSW 11.5 mph - N/A   Overcast
8:58 AM 53.1 °F 50.5 °F 91% 29.84 in 6.2 mi SSW 11.5 mph - N/A   Mostly Cloudy
9:58 AM 55.2 °F 51.3 °F 87% 29.84 in 6.2 mi SSW 12.7 mph - N/A   Overcast
10:58 AM 59.2 °F 51.8 °F 77% 29.83 in 6.2 mi SSW 17.3 mph - N/A   Mostly Cloudy
11:58 AM 61.5 °F 51.1 °F 69% 29.81 in 6.2 mi SW 17.3 mph - N/A   Mostly Cloudy
12:22 PM 62.6 °F 51.8 °F 68% 29.79 in 6.2 mi SW 17.3 mph 26.5 mph N/A   Mostly Cloudy
12:30 PM 62.6 °F 51.8 °F 68% 29.79 in 6.2 mi SW 19.6 mph 27.6 mph N/A   Mostly Cloudy
12:40 PM 62.6 °F 51.8 °F 68% 29.79 in 6.2 mi SW 19.6 mph 24.2 mph N/A   Mostly Cloudy
12:58 PM 61.7 °F 50.5 °F 67% 29.79 in 6.2 mi SW 20.7 mph 28.8 mph N/A   Mostly Cloudy
1:58 PM 63.5 °F 51.3 °F 64% 29.77 in 6.2 mi SSW 15.0 mph 24.2 mph N/A   Overcast
2:10 PM 64.4 °F 51.8 °F 64% 29.75 in 5.0 mi SW 20.7 mph - N/A   Haze
2:11 PM 62.6 °F 51.8 °F 68% 29.75 in 5.0 mi SSW 20.7 mph - N/A   Haze
2:12 PM 62.6 °F 51.8 °F 68% 29.75 in 5.0 mi SW 20.7 mph - N/A Rain Light Rain
2:28 PM 64.4 °F 51.8 °F 64% 29.75 in 6.2 mi SW 13.8 mph 25.3 mph N/A   Mostly Cloudy
2:51 PM 64.4 °F 51.8 °F 64% 29.74 in 6.2 mi SW 19.6 mph - N/A   Mostly Cloudy
2:58 PM 63.3 °F 51.6 °F 66% 29.75 in 6.2 mi SSW 17.3 mph 31.1 mph 0.00 in   Mostly Cloudy
3:37 PM 64.4 °F 51.8 °F 64% 29.74 in 6.2 mi SSW 18.4 mph 27.6 mph N/A   Overcast
3:38 PM 64.4 °F 51.8 °F 64% 29.74 in 6.2 mi SSW 18.4 mph 27.6 mph N/A   Overcast
3:58 PM 63.0 °F 51.6 °F 66% 29.74 in 6.2 mi SSW 18.4 mph 28.8 mph N/A   Overcast
4:58 PM 61.5 °F 51.8 °F 70% 29.73 in 6.2 mi SSW 17.3 mph 24.2 mph N/A   Scattered Clouds
5:58 PM 61.0 °F 51.6 °F 71% 29.71 in 6.2 mi SSW 15.0 mph - N/A   Overcast
6:32 PM 59.0 °F 51.8 °F 77% 29.70 in 6.2 mi SSW 15.0 mph 23.0 mph N/A   Overcast
6:35 PM 60.8 °F 51.8 °F 72% 29.71 in 6.2 mi SSW 10.4 mph - N/A   Overcast
6:39 PM 59.0 °F 51.8 °F 77% 29.70 in 6.2 mi SSW 15.0 mph - N/A Rain Light Rain
6:51 PM 59.0 °F 53.6 °F 82% 29.70 in 6.2 mi SSW 15.0 mph 21.9 mph N/A   Overcast
6:58 PM 58.3 °F 53.1 °F 83% 29.71 in 6.2 mi SSW 15.0 mph - 0.00 in   Overcast
7:41 PM 59.0 °F 53.6 °F 82% 29.69 in 6.2 mi SSW 17.3 mph 23.0 mph N/A Rain Light Rain
7:57 PM 57.2 °F 53.6 °F 88% 29.69 in 6.2 mi SSW 13.8 mph - N/A Rain Light Rain
7:58 PM 57.7 °F 53.2 °F 85% 29.70 in 6.2 mi SSW 13.8 mph 23.0 mph 0.00 in Rain Light Rain
8:01 PM 57.2 °F 53.6 °F 88% 29.69 in 6.2 mi SSW 16.1 mph 21.9 mph N/A Rain Light Rain
8:32 PM 57.2 °F 53.6 °F 88% 29.68 in 6.2 mi SSW 18.4 mph 25.3 mph N/A Rain Light Rain
8:38 PM 57.2 °F 53.6 °F 88% 29.68 in 6.2 mi SSW 16.1 mph 25.3 mph N/A Rain Light Rain
8:49 PM 57.2 °F 53.6 °F 88% 29.68 in 6.2 mi SSW 15.0 mph 24.2 mph N/A   Overcast
8:58 PM 56.3 °F 54.5 °F 94% 29.68 in 6.2 mi SSW 16.1 mph 24.2 mph 0.01 in   Overcast
9:26 PM 57.2 °F 53.6 °F 88% 29.67 in 6.2 mi SSW 15.0 mph 24.2 mph N/A   Overcast
9:58 PM 56.5 °F 54.3 °F 92% 29.67 in 6.2 mi SSW 15.0 mph 25.3 mph N/A   Overcast
10:08 PM 55.4 °F 53.6 °F 94% 29.66 in 6.2 mi SSW 15.0 mph 23.0 mph N/A   Overcast
10:17 PM 55.4 °F 53.6 °F 94% 29.66 in 6.2 mi SSW 15.0 mph 23.0 mph N/A   Mostly Cloudy
10:19 PM 55.4 °F 53.6 °F 94% 29.66 in 6.2 mi SSW 12.7 mph 23.0 mph N/A   Mostly Cloudy
10:23 PM 55.4 °F 53.6 °F 94% 29.66 in 6.2 mi SSW 13.8 mph 23.0 mph N/A   Mostly Cloudy
10:29 PM 55.4 °F 53.6 °F 94% 29.66 in 6.2 mi SSW 13.8 mph 21.9 mph N/A   Scattered Clouds
10:58 PM 55.6 °F 53.4 °F 92% 29.66 in 6.2 mi SSW 13.8 mph 23.0 mph N/A   Partly Cloudy
11:31 PM 57.2 °F 53.6 °F 88% 29.64 in 6.2 mi SSW 18.4 mph 24.2 mph N/A   Mostly Cloudy
11:51 PM 57.2 °F 53.6 °F 88% 29.63 in 6.2 mi SSW 13.8 mph - N/A   Mostly Cloudy
11:58 PM 56.5 °F 53.8 °F 91% 29.64 in 6.2 mi SSW 18.4 mph 24.2 mph N/A   Mostly Cloudy